Location: Paddlesworth
(51.1000°N, 1.1333°E)
Time: 22:40:37
(UTC+00:00)

Cosmos 1833 Rocket - Pass Details

Date: 11 May 2021
Orbit: 831 x 841 km, 71.0° (Epoch: 24 June)

Event Time Altitude Azimuth Distance (km) Brightness Sun altitude
Rises 20:54:38 0° 329° (NNW) 3,407 7.8 -10.7°
Reaches altitude 10° 20:57:05 10° 328° (NNW) 2,469 6.6 -10.9°
Maximum altitude 21:02:45 80° 243° (WSW) 859 2.8 -11.5°
Enters shadow 21:07:31 15° 157° (SSE) 2,127 4.2 -12.0°
